Regional Weather Roundup
Issued by NWS

Home | Current Version | Previous Version | Graphics & Text | Print | Product List | Glossary On
Versions: 1 2 3 4 5 6 7 8 9 10 11 12 13 14 15 16 17 18 19 20 21 22 23 24 25 26 27 28 29 30 31 32 33 34 35 36 37 38 39 40 41 42 43 44 45 46 47 48 49 50
000
ASUS43 KFSD 170802
RWRSD

WEATHER ROUNDUP FOR SOUTH DAKOTA
NATIONAL WEATHER SERVICE SIOUX FALLS SD
200 AM CST WED JAN 17 2018

NOTE: "FAIR" INDICATES FEW OR NO CLOUDS BELOW 12,000 FEET WITH NO
SIGNIFICANT WEATHER AND/OR OBSTRUCTIONS TO VISIBILITY.


SDZ001>005-009-010-012>017-170900-
NORTHWEST AND NORTH CENTRAL SOUTH DAKOTA

CITY           SKY/WX    TMP DP  RH WIND       PRES   REMARKS
BUFFALO          N/A      4  -4  69 SW3       30.06F
FAITH            N/A      2  -1  88 W3        30.16S
MOBRIDGE       PTCLDY     7   0  73 SE9       30.19F WCI  -7
$$

SDZ012>016-024>037-041>051-057-063-072>074-170900-
SOUTHWEST AND SOUTH CENTRAL SOUTH DAKOTA

CITY           SKY/WX    TMP DP  RH WIND       PRES   REMARKS
RAPID CTY ARPT PTCLDY    11   3  70 E3        30.14F
PIERRE         CLEAR      5   1  83 SE5       30.26F WCI  -4
CUSTER         PTCLDY    25 -19  13 W5        30.14F WCI  19
ELLSWORTH AFB  PTCLDY    15   2  55 W3        30.13F
PHILIP         CLEAR      6   1  80 W3        30.21F
PINE RIDGE     CLEAR     17   5  59 SW6       30.22F WCI   9
SPEARFISH        N/A     25   3  39 CALM      30.13F
WINNER         FAIR      18   5  57 S12G17    30.28F WCI   5
$$

SDZ004>011-016>023-039-040-170900-
NORTHEAST SOUTH DAKOTA

CITY           SKY/WX    TMP DP  RH WIND       PRES   REMARKS
ABERDEEN       CLEAR      3  -3  76 S10       30.31F WCI -12
WATERTOWN      CLOUDY     3  -2  79 S12       30.31F WCI -13
BROOKINGS      CLOUDY     2  -3  80 S12       30.38F WCI -15
SISSETON         N/A     14   1  56 SW15G21   30.28F WCI  -1
$$

SDZ017-020-022-023-036>040-048>070-170900-
SOUTHEAST SOUTH DAKOTA

CITY           SKY/WX    TMP DP  RH WIND       PRES   REMARKS
SIOUX FALLS    CLOUDY     5   0  79 S13       30.43F WCI -12
HURON          CLEAR      3  -2  79 S14       30.34F WCI -15
CHAMBERLAIN    CLEAR     11   3  71 S6        30.30F WCI   1
MITCHELL       CLEAR      5  -2  72 S13       30.39F WCI -12
YANKTON        CLOUDY     4   0  83 S6        30.45F WCI  -7
$$

ABBREVIATIONS USED IN REMARKS
   TC - TEMPERATURE IN CELSIUS
  WCI - WIND CHILL INDEX
   HX - HEAT INDEX
  VSB - VISIBILITY





USA.gov is the U.S. government's official web portal to all federal, state and local government web resources and services.